Tracking 26218 objects as of 27-Sep-2022
HD Live streaming from Space Station
objects crossing your sky now

STARLINK-4719

Track STARLINK-4719 now!
10-day predictions
STARLINK-4719 is classified as:


NORAD ID: 53774
Int'l Code: 2022-111B
Perigee: 356.5 km
Apogee: 357.6 km
Inclination: 53.2 °
Period: 91.5 minutes
Semi major axis: 6728 km
RCS: Unknown
Launch date: September 11, 2022
Source: United States (US)
Launch site: AIR FORCE EASTERN TEST RANGE (AFETR)
aabbcc
Your satellite tracking list
Your tracking list is empty




NASA's NSSDC Master Catalog

Two Line Element Set (TLE):
1 53774U 22111B   22270.25001157  .00089630  00000-0  63753-3 0  9990
2 53774  53.2165 186.9841 0000804 123.3587 314.9223 15.73152889  2485
Source of the keplerian elements: AFSPC